Location: Ferris
(32.5340°N, 96.6656°W)
Time: 10:01:37
(UTC+00:00)

Cosmos 2084 - Pass Details

Date: 11 February 2026
Orbit: 538 x 562 km, 62.8° (Epoch: 8 March)

Event Time Altitude Azimuth Distance (km) Brightness Sun altitude
Exits shadow 12:15:10 12° 320° (NW) 1,671 5.3 -12.8°
Maximum altitude 12:18:48 58° 242° (WSW) 631 3.3 -12.0°
Drops below altitude 10° 12:22:45 10° 163° (SSE) 1,787 6.3 -11.2°
Sets 12:24:57 0° 159° (SSE) 2,672 7.3 -10.7°
